Consulta los datos en tiempo real de la estación meteorológica de Montseny - Mas Joan
| Hora UTC | 09:00 |
|---|---|
| Temperatura | 17.4 ºC |
| Humedad | 54.9 % |
| Pluja | 0.2 mm |
| Velocidad viento | 6.9 km/h |
| Dirección viento | NW |
| Radiación solar | 841.0 W/m² |
| Temperatura (ºC) | Humedad (%) | Velocidad viento (km/h) | Precipitación (mm) | Radiación solar (W/m²) | ||||||||||||
|---|---|---|---|---|---|---|---|---|---|---|---|---|---|---|---|---|
| Hora UTC | Aire | Humedad | Vel. | Dir. | Vel. Max | Dir. | Intent. máx 5 min. | Rad. Sol. | ||||||||
| 00:05 | 10.0 | 96.4 | 3.3 | WSW | 3.9 | WSW | 0.0 | 0.0 | ||||||||
| 00:10 | 10.0 | 96.5 | 2.8 | WSW | 3.8 | WSW | 0.0 | 0.0 | ||||||||
| 00:15 | 9.9 | 96.6 | 2.5 | WSW | 3.5 | WSW | 0.0 | 0.0 | ||||||||
| 00:20 | 9.9 | 96.6 | 2.3 | WSW | 4.1 | W | 0.0 | 0.0 | ||||||||
| 00:25 | 9.9 | 96.6 | 2.3 | WSW | 3.3 | WSW | 0.0 | 0.0 | ||||||||
| 00:30 | 9.7 | 96.5 | 2.4 | WSW | 4.1 | W | 0.0 | 0.0 | ||||||||
| 00:35 | 9.6 | 96.4 | 3.0 | W | 4.0 | W | 0.0 | 0.0 | ||||||||
| 00:40 | 9.4 | 96.4 | 3.3 | W | 4.1 | W | 0.0 | 0.0 | ||||||||
| 00:45 | 9.3 | 96.5 | 3.2 | WSW | 4.0 | WSW | 0.0 | 0.0 | ||||||||
| 00:50 | 9.3 | 96.5 | 3.6 | WSW | 4.5 | W | 0.0 | 0.0 | ||||||||
| 00:55 | 9.2 | 96.6 | 3.5 | W | 4.4 | WSW | 0.0 | 0.0 | ||||||||
| 01:00 | 9.2 | 96.7 | 2.8 | W | 4.1 | W | 0.0 | 0.0 | ||||||||
| 01:05 | 9.2 | 96.7 | 3.1 | WSW | 4.9 | W | 0.0 | 0.0 | ||||||||
| 01:10 | 9.2 | 96.7 | 3.4 | W | 5.2 | W | 0.0 | 0.0 | ||||||||
| 01:15 | 9.2 | 96.6 | 3.7 | W | 6.4 | WNW | 0.1 | 0.0 | ||||||||
| 01:20 | 9.2 | 96.5 | 3.1 | W | 5.0 | WNW | 0.0 | 0.0 | ||||||||
| 01:25 | 9.2 | 96.4 | 3.8 | W | 5.6 | WNW | 0.0 | 0.0 | ||||||||
| 01:30 | 9.2 | 96.4 | 3.3 | W | 4.4 | W | 0.0 | 0.0 | ||||||||
| 01:35 | 9.2 | 96.4 | 4.2 | W | 6.1 | WNW | 0.0 | 0.0 | ||||||||
| 01:40 | 9.1 | 96.4 | 3.4 | WSW | 4.6 | WSW | 0.0 | 0.0 | ||||||||
| 01:45 | 9.1 | 96.3 | 3.2 | WSW | 4.6 | SW | 0.0 | 0.0 | ||||||||
| 01:50 | 9.0 | 96.3 | 3.4 | W | 4.9 | W | 0.0 | 0.0 | ||||||||
| 01:55 | 9.0 | 96.3 | 3.5 | WSW | 5.6 | WNW | 0.0 | 0.0 | ||||||||
| 02:00 | 9.0 | 96.3 | 3.3 | WSW | 5.2 | WNW | 0.0 | 0.0 | ||||||||
| 02:05 | 9.1 | 96.3 | 4.7 | WNW | 9.5 | NW | 0.0 | 0.0 | ||||||||
| 02:10 | 9.2 | 95.6 | 5.5 | NW | 12.3 | N | 0.0 | 0.0 | ||||||||
| 02:15 | 9.6 | 92.3 | 7.8 | NW | 14.5 | NNW | 0.0 | 0.0 | ||||||||
| 02:20 | 10.1 | 87.4 | 7.9 | NW | 16.5 | NNW | 0.0 | 0.0 | ||||||||
| 02:25 | 10.3 | 85.3 | 9.0 | NNW | 18.6 | NNW | 0.0 | 0.0 | ||||||||
| 02:30 | 10.4 | 84.4 | 10.5 | NNW | 20.8 | N | 0.0 | 0.0 | ||||||||
| 02:35 | 10.7 | 82.2 | 7.2 | NW | 16.1 | NW | 0.0 | 0.0 | ||||||||
| 02:40 | 10.6 | 82.9 | 6.4 | NW | 13.4 | N | 0.0 | 0.0 | ||||||||
| 02:45 | 10.7 | 81.7 | 7.3 | NNW | 16.4 | N | 0.1 | 0.0 | ||||||||
| 02:50 | 10.6 | 82.5 | 6.0 | NW | 11.8 | W | 0.0 | 0.0 | ||||||||
| 02:55 | 10.6 | 81.9 | 4.2 | NW | 12.4 | NW | 0.0 | 0.0 | ||||||||
| 03:00 | 10.5 | 81.5 | 4.3 | WNW | 13.3 | NW | 0.0 | 0.0 | ||||||||
| 03:05 | 10.4 | 80.8 | 5.0 | NW | 13.1 | NW | 0.0 | 0.0 | ||||||||
| 03:10 | 10.6 | 77.6 | 5.8 | NW | 14.5 | WNW | 0.0 | 0.0 | ||||||||
| 03:15 | 10.8 | 75.8 | 5.4 | NW | 13.7 | NW | 0.0 | 0.0 | ||||||||
| 03:20 | 10.5 | 76.9 | 4.0 | NW | 9.4 | WSW | 0.0 | 0.0 | ||||||||
| 03:25 | 10.3 | 79.4 | 3.7 | W | 8.7 | NW | 0.0 | 0.0 | ||||||||
| 03:30 | 10.0 | 79.6 | 3.9 | WNW | 12.7 | NW | 0.0 | 0.0 | ||||||||
| 03:35 | 10.0 | 79.3 | 3.5 | WNW | 6.7 | WNW | 0.0 | 0.0 | ||||||||
| 03:40 | 10.3 | 77.0 | 3.8 | WNW | 10.8 | WNW | 0.0 | 0.0 | ||||||||
| 03:45 | 10.2 | 77.8 | 2.7 | WNW | 5.1 | NW | 0.0 | 0.0 | ||||||||
| 03:50 | 9.9 | 79.2 | 3.6 | WNW | 9.9 | NW | 0.0 | 0.0 | ||||||||
| 03:55 | 10.1 | 77.0 | 5.4 | WNW | 10.6 | N | 0.0 | 0.0 | ||||||||
| 04:00 | 10.3 | 75.5 | 6.9 | NW | 14.8 | N | 0.0 | 0.0 | ||||||||
| 04:05 | 10.2 | 77.9 | 5.2 | WNW | 11.2 | N | 0.0 | 0.0 | ||||||||
| 04:10 | 10.3 | 77.8 | 6.3 | WNW | 11.7 | NW | 0.0 | 0.0 | ||||||||
| 04:15 | 9.9 | 80.4 | 4.8 | WNW | 9.4 | WNW | 0.0 | 0.0 | ||||||||
| 04:20 | 9.9 | 80.9 | 4.3 | WNW | 11.7 | N | 0.0 | 0.0 | ||||||||
| 04:25 | 9.7 | 80.9 | 4.8 | WNW | 12.2 | NNW | 0.0 | 0.0 | ||||||||
| 04:30 | 9.8 | 80.9 | 4.3 | WNW | 7.5 | N | 0.0 | 0.0 | ||||||||
| 04:35 | 9.9 | 79.1 | 5.9 | WNW | 10.3 | NW | 0.0 | 1.6 | ||||||||
| 04:40 | 10.4 | 75.9 | 6.7 | NW | 16.9 | NNW | 0.0 | 3.8 | ||||||||
| 04:45 | 10.2 | 77.9 | 4.4 | W | 10.1 | SSE | 0.0 | 5.1 | ||||||||
| 04:50 | 10.2 | 77.8 | 5.2 | WNW | 12.0 | N | 0.0 | 8.1 | ||||||||
| 04:55 | 10.4 | 76.0 | 11.5 | NNW | 16.4 | WNW | 0.0 | 11.2 | ||||||||
| 05:00 | 10.4 | 76.4 | 9.9 | NW | 14.9 | NW | 0.0 | 13.4 | ||||||||
| 05:05 | 10.3 | 77.6 | 8.6 | NW | 13.7 | WNW | 0.0 | 15.3 | ||||||||
| 05:10 | 10.2 | 78.6 | 7.6 | NW | 13.9 | W | 0.0 | 17.6 | ||||||||
| 05:15 | 10.2 | 79.3 | 8.1 | NW | 15.4 | NW | 0.0 | 47.4 | ||||||||
| 05:20 | 10.6 | 79.2 | 6.8 | WNW | 14.6 | WNW | 0.0 | 78.4 | ||||||||
| 05:25 | 10.9 | 78.1 | 8.4 | NW | 13.6 | NNW | 0.0 | 97.4 | ||||||||
| 05:30 | 11.3 | 76.4 | 5.9 | WNW | 11.2 | NW | 0.0 | 116.0 | ||||||||
| 05:35 | 11.7 | 75.7 | 5.0 | NW | 8.5 | WNW | 0.0 | 131.7 | ||||||||
| 05:40 | 12.0 | 74.1 | 5.1 | NW | 9.1 | NW | 0.0 | 150.3 | ||||||||
| 05:45 | 12.2 | 73.7 | 4.3 | NW | 10.1 | NNW | 0.0 | 179.2 | ||||||||
| 05:50 | 12.5 | 72.9 | 2.7 | NW | 7.5 | WNW | 0.0 | 205.5 | ||||||||
| 05:55 | 12.8 | 71.5 | 4.0 | NW | 9.7 | NNW | 0.0 | 221.4 | ||||||||
| 06:00 | 12.7 | 72.0 | 6.3 | NNW | 10.5 | NNW | 0.0 | 234.2 | ||||||||
| 06:05 | 12.7 | 72.9 | 6.9 | NNW | 13.3 | NW | 0.0 | 249.9 | ||||||||
| 06:10 | 12.7 | 72.2 | 6.7 | NNW | 12.0 | N | 0.0 | 269.1 | ||||||||
| 06:15 | 12.8 | 72.5 | 6.5 | NNW | 13.9 | NNW | 0.0 | 290.0 | ||||||||
| 06:20 | 12.9 | 71.3 | 5.5 | NNW | 10.3 | NNW | 0.0 | 309.3 | ||||||||
| 06:25 | 13.2 | 70.8 | 5.8 | N | 9.3 | N | 0.0 | 329.0 | ||||||||
| 06:30 | 13.3 | 70.7 | 7.9 | NNW | 12.4 | NNW | 0.0 | 348.6 | ||||||||
| 06:35 | 13.4 | 69.9 | 7.8 | N | 20.4 | N | 0.0 | 368.7 | ||||||||
| 06:40 | 13.8 | 70.4 | 3.1 | NNW | 8.1 | N | 0.0 | 386.4 | ||||||||
| 06:45 | 14.2 | 65.5 | 5.6 | NNE | 12.4 | NE | 0.0 | 405.2 | ||||||||
| 06:50 | 14.9 | 64.7 | 3.9 | ENE | 9.6 | NNE | 0.0 | 424.5 | ||||||||
| 06:55 | 15.3 | 61.4 | 3.6 | NE | 9.1 | N | 0.0 | 441.8 | ||||||||
| 07:00 | 15.6 | 63.5 | 5.2 | NNE | 19.3 | N | 0.0 | 459.6 | ||||||||
| 07:05 | 16.0 | 55.6 | 5.7 | NNW | 14.7 | W | 0.0 | 479.2 | ||||||||
| 07:10 | 16.1 | 54.1 | 5.4 | NW | 17.0 | NW | 0.0 | 497.1 | ||||||||
| 07:15 | 16.2 | 53.2 | 6.6 | NNW | 17.4 | WSW | 0.0 | 515.0 | ||||||||
| 07:20 | 16.2 | 54.2 | 7.3 | N | 16.3 | N | 0.0 | 533.9 | ||||||||
| 07:25 | 16.3 | 53.7 | 7.7 | NW | 17.5 | WNW | 0.0 | 552.5 | ||||||||
| 07:30 | 16.3 | 54.1 | 7.4 | N | 17.4 | NNE | 0.0 | 570.4 | ||||||||
| 07:35 | 16.6 | 55.1 | 3.7 | ESE | 9.9 | SSE | 0.0 | 586.0 | ||||||||
| 07:40 | 16.6 | 54.8 | 7.2 | NNW | 17.1 | N | 0.0 | 602.0 | ||||||||
| 07:45 | 16.5 | 56.0 | 6.0 | NE | 18.6 | NNW | 0.0 | 618.7 | ||||||||
| 07:50 | 16.5 | 53.8 | 8.2 | NNW | 19.7 | N | 0.0 | 635.7 | ||||||||
| 07:55 | 16.7 | 55.9 | 7.2 | NNW | 22.4 | NNW | 0.0 | 652.1 | ||||||||
| 08:00 | 16.8 | 60.5 | 6.4 | NNE | 14.7 | 0.0 | 668.0 | |||||||||
| 08:05 | 16.9 | 59.3 | 3.8 | NE | 10.3 | NW | 0.0 | 682.6 | ||||||||
| 08:10 | 17.2 | 60.7 | 4.3 | NNE | 8.6 | NNE | 0.0 | 696.6 | ||||||||
| 08:15 | 16.9 | 62.6 | 2.9 | SE | 6.4 | ESE | 0.0 | 710.1 | ||||||||
| 08:20 | 17.1 | 54.6 | 7.9 | N | 17.1 | NNW | 0.0 | 729.4 | ||||||||
| 08:25 | 17.4 | 56.0 | 4.8 | ENE | 10.4 | ESE | 0.0 | 744.2 | ||||||||
| 08:30 | 17.3 | 56.9 | 4.7 | NW | 9.3 | WNW | 0.0 | 758.6 | ||||||||
| 08:35 | 17.2 | 62.3 | 7.5 | N | 13.3 | N | 0.0 | 771.5 | ||||||||
| 08:40 | 17.2 | 62.9 | 5.6 | SE | 15.4 | SSE | 0.0 | 784.6 | ||||||||
| 08:45 | 16.9 | 55.4 | 7.8 | N | 18.0 | NNW | 0.0 | 803.0 | ||||||||
| 08:50 | 17.4 | 52.8 | 4.5 | NNE | 16.7 | NNE | 0.0 | 817.0 | ||||||||
| 08:55 | 17.4 | 54.1 | 5.1 | WNW | 15.3 | NNW | 0.0 | 828.0 | ||||||||
| 09:00 | 17.4 | 54.9 | 6.9 | NW | 15.3 | NW | 0.0 | 841.0 | ||||||||
| Máxima | 17.4 | 96.7 | 11.5 | NNW | 22.4 | NNW | 0.1 | 841.0 | ||||||||
| Mínima | 9.0 | 52.8 | ||||||||||||||
| Total | 0.2 | |||||||||||||||